User: anonymous   Login
Location: Newark
(48.0000°N, 67.0000°E)
Time: 04:14:29
(UTC+00:00)
Language:

CUTE-I - Orbit

View from above orbital plane
View from above orbital plane
View from above satellite
View from above satellite

Ground track
Ground track

The orbit data is extracted from the following two-line orbital elements,

1 27844U 03031E   20092.25657735 +.00000049 +00000-0 +41788-4 0  9990
2 27844 098.6846 101.1489 0008689 280.1752 079.8446 14.22228735869128
Epoch (UTC): 01 April 2020 06:09:28
Eccentricity: 0.0008689
inclination: 98.6846°
perigee height: 811 km
apogee height: 824 km
right ascension of ascending node: 101.1489°
argument of perigee: 280.1752°
revolutions per day: 14.22228735
mean anomaly at epoch: 79.8446°
orbit number at epoch: 86912

The dashed part of the orbit path shows where the satellite is in the earth's shadow,  

DLR